Location: Vale
(35.4830°N, 81.3830°W)
Time: 14:22:38
(UTC-04:00)

Amateur Radio Satellites - All Passes

Search period start: 29 May 2015 13:52
Search period end: 30 May 2015 13:52
Location: Vale, 35.4830°N, 81.3830°W

Satellite Date Start Highest point End Downlink Frequencies (MHz)
Time Altitude Azimuth
GONETS M04 29 May 14:02:51 14:11:43 83° 277° (W) 14:20:37
Gurwin Techsat 1B 29 May 14:04:34 14:08:18 21° 67° (ENE) 14:12:13 435.225
SO-50 29 May 14:06:10 14:08:02 12° 252° (WSW) 14:09:34 436.795
RS-15 29 May 14:08:33 14:12:57 13° 358° (N) 14:17:22 29.354- 29.394
ITUPSAT 1 29 May 14:15:22 14:18:46 20° 93° (E) 14:22:21 437.325
BEESAT 29 May 14:21:01 14:24:47 23° 95° (E) 14:28:38 436.000
SRMSAT 29 May 14:28:40 14:32:14 16° 185° (S) 14:35:45 437.500
Oscar 19 29 May 14:28:48 14:33:56 61° 260° (W) 14:39:05 437.125/150
SWISSCUBE 29 May 14:29:36 14:33:51 32° 97° (E) 14:38:08 437.505
ITAMSAT 1 29 May 14:48:56 14:53:59 59° 73° (ENE) 14:59:05 435.822/435.867
DANDE 29 May 14:54:38 15:01:11 32° 292° (WNW) 15:08:25 436.750
AO-7 29 May 15:06:57 15:12:58 24° 59° (ENE) 15:19:19 29.400- 29.500
HORYU 2 29 May 15:08:29 15:09:51 12° 66° (ENE) 15:11:28 437.375
SPROUT 29 May 15:08:55 15:09:44 10° 294° (WNW) 15:10:15 437.525
CUSAT 1 29 May 15:09:03 15:14:41 20° 297° (WNW) 15:20:17 437.405
O/OREOS (USA 219) 29 May 15:12:58 15:17:00 33° 105° (ESE) 15:21:04 437.305
KKS-1 29 May 15:18:20 15:20:51 15° 92° (E) 15:23:33 437.445
JAS-2 29 May 15:20:26 15:25:17 24° 69° (ENE) 15:29:56 435.910
TISAT 1 29 May 15:21:43 15:22:12 10° 294° (WNW) 15:22:25 437.305
Cosmos 2499 29 May 15:26:58 15:35:02 68° 94° (E) 15:42:33 435.465 / 435.565
Gurwin Techsat 1B 29 May 15:42:57 15:48:00 44° 261° (W) 15:53:04 435.225
ITUPSAT 1 29 May 15:52:24 15:56:48 36° 288° (WNW) 16:01:09 437.325
BEESAT 29 May 15:58:27 16:02:38 31° 289° (WNW) 16:06:46 436.000
GONETS M04 29 May 16:05:28 16:10:13 14° 298° (WNW) 16:14:18
SWISSCUBE 29 May 16:07:46 16:11:33 23° 291° (WNW) 16:15:13 437.505
STARS 29 May 16:14:22 16:18:31 40° 98° (E) 16:22:40 437.465
SRMSAT 29 May 16:19:49 16:20:40 10° 194° (SSW) 16:21:23 437.500
RS-15 29 May 16:22:51 16:31:31 24° 33° (NNE) 16:40:51 29.354- 29.394
ITAMSAT 1 29 May 16:31:13 16:33:57 14° 270° (W) 16:36:24 435.822/435.867
HORYU 2 29 May 16:41:37 16:46:03 60° 260° (W) 16:50:28 437.375
BEESAT 2 29 May 16:52:50 16:54:32 13° 110° (ESE) 16:56:28 435.950
O/OREOS (USA 219) 29 May 16:53:08 16:56:31 20° 300° (WNW) 16:59:47 437.305
KKS-1 29 May 16:53:30 16:57:44 41° 287° (WNW) 17:01:53 437.445
AO-7 29 May 16:56:51 17:05:07 72° 255° (WSW) 17:13:26 29.400- 29.500
JAS-2 29 May 17:03:42 17:10:13 49° 260° (W) 17:15:58 435.910
MOZHAYETS 4 29 May 17:06:58 17:10:10 19° 93° (E) 17:13:31
Cosmos 2499 29 May 17:23:04 17:28:50 20° 291° (WNW) 17:33:58 435.465 / 435.565
CUTE-I 29 May 17:27:27 17:27:52 10° 63° (ENE) 17:28:39 437.470
BEESAT 3 29 May 17:35:31 17:39:27 52° 116° (ESE) 17:43:28 437.485
Cubesat XI-IV 29 May 17:45:57 17:49:09 17° 66° (ENE) 17:52:35 437.490
STARS 29 May 17:51:55 17:54:41 16° 292° (WNW) 17:57:14 437.465
YUBILEINY 29 May 17:52:53 17:59:03 22° 67° (ENE) 18:05:36 435.215
BEESAT 2 29 May 18:28:18 18:32:15 46° 303° (WNW) 18:36:16 435.950
RS-15 29 May 18:34:32 18:46:17 79° 59° (ENE) 18:58:30 29.354- 29.394
AIST 2 29 May 18:36:39 18:40:47 54° 116° (ESE) 18:44:58 435.215
MOZHAYETS 4 29 May 18:43:22 18:47:30 34° 288° (WNW) 18:51:36
CUBESAT XI-V 29 May 18:53:33 18:57:05 21° 93° (E) 19:00:44 437.345
CUTE-I 29 May 19:01:58 19:07:16 90° 244° (WSW) 19:12:38 437.470
BEESAT 3 29 May 19:15:34 19:17:48 14° 313° (NW) 19:19:53 437.485
Cubesat XI-IV 29 May 19:23:40 19:28:51 55° 260° (W) 19:34:05 437.490
STRAND 1 29 May 19:44:43 19:49:08 29° 96° (E) 19:53:38 437.568
YUBILEINY 29 May 19:48:08 19:56:46 70° 267° (W) 20:05:23 435.215
Cosmos 2491 29 May 19:48:17 19:56:59 71° 94° (E) 20:05:47 435.465 / 435.565
GOMX 1 29 May 19:56:55 20:00:16 18° 66° (ENE) 20:03:53 467.674
BRITE-PL 29 May 20:08:06 20:12:44 35° 71° (ENE) 20:17:43 437.365/2234.400
HO-68 29 May 20:09:41 20:15:24 27° 64° (ENE) 20:21:18 435.675
AIST 1 29 May 20:17:04 20:20:17 22° 90° (E) 20:23:38
AIST 2 29 May 20:17:13 20:19:44 15° 313° (NW) 20:22:06 435.215
SEEDS 29 May 20:24:55 20:26:39 13° 68° (ENE) 20:28:37 437.485
CUBESAT XI-V 29 May 20:30:22 20:34:36 32° 288° (WNW) 20:38:44 437.345
COMPASS 1 29 May 20:33:20 20:35:00 12° 68° (ENE) 20:36:53 437.405
PRISM 29 May 20:35:52 20:39:59 61° 285° (WNW) 20:44:06 437.425
DOVE 4 29 May 20:41:46 20:46:16 32° 71° (ENE) 20:50:57 437.250
AAUSAT CUBESAT 2 29 May 20:42:30 20:44:30 14° 69° (ENE) 20:46:41 437.432
M-CUBED/EXP-1 PRIME 29 May 20:45:41 20:48:52 45° 104° (ESE) 20:52:08 437.505
RS-15 29 May 20:48:39 20:57:54 26° 255° (WSW) 21:06:44 29.354- 29.394
AUBIESAT-1 29 May 20:50:55 20:54:06 45° 105° (ESE) 20:57:22 437.475
Cosmos 2504 29 May 21:02:06 21:08:25 33° 74° (ENE) 21:14:54 435.465 / 435.565
UWE-3 29 May 21:13:19 21:14:46 12° 67° (ENE) 21:16:30 435.000/436.395/437.385
STRAND 1 29 May 21:23:53 21:28:17 28° 291° (WNW) 21:32:35 437.568
GOMX 1 29 May 21:32:53 21:37:54 53° 261° (W) 21:43:13 467.674
CINEMA 3 29 May 21:34:16 21:39:05 52° 74° (ENE) 21:44:00 145.822/145.860
CANX-2 29 May 21:37:03 21:41:16 61° 260° (W) 21:45:29 2200.000
CUTE 1.7 + AOD 2 29 May 21:40:06 21:44:19 63° 259° (W) 21:48:33 437.475
BRITE-PL 29 May 21:47:05 21:51:20 25° 268° (W) 21:55:42 437.365/2234.400
Cosmos 2491 29 May 21:48:09 21:54:48 22° 293° (WNW) 22:01:05 435.465 / 435.565
AIST 1 29 May 21:54:22 21:57:52 24° 285° (WNW) 22:01:18
ZACube-1 29 May 21:54:30 21:58:15 26° 71° (ENE) 22:02:03 437.345
HO-68 29 May 21:55:49 22:02:48 52° 260° (W) 22:09:46 435.675
SEEDS 29 May 21:58:01 22:02:06 46° 261° (W) 22:06:10 437.485
Oscar 11 29 May 21:59:26 22:03:37 50° 75° (ENE) 22:07:49 145.826/435.025
DX 1 29 May 22:04:41 22:07:06 15° 68° (ENE) 22:09:43 434.975-435.025
CUBEBUG 2 29 May 22:05:24 22:10:03 55° 75° (ENE) 22:14:42 437.445
COMPASS 1 29 May 22:06:17 22:10:19 46° 261° (W) 22:14:21 437.405
ISS 29 May 22:07:10 22:10:00 29° 132° (SE) 22:12:53 145.825
AAUSAT CUBESAT 2 29 May 22:15:50 22:19:48 41° 262° (W) 22:23:45 437.432
DOVE 4 29 May 22:19:36 22:23:59 27° 266° (W) 22:28:25 437.250
DELFI C3 29 May 22:22:09 22:26:08 67° 76° (ENE) 22:30:08 145.870
VELOX 1 29 May 22:30:58 22:33:17 15° 67° (ENE) 22:35:50 145.980
UWE-3 29 May 22:46:10 22:50:49 65° 259° (W) 22:55:28 435.000/436.395/437.385
ESTCUBE 1 29 May 22:46:39 22:48:26 13° 67° (ENE) 22:50:27 437.505/2401.250
FUNcube-1 29 May 22:47:49 22:52:25 81° 260° (W) 22:56:59 145.935
Cosmos 2504 29 May 22:55:21 23:01:47 36° 271° (W) 23:08:10 435.465 / 435.565
HUMSAT D 29 May 22:58:29 23:02:44 59° 76° (ENE) 23:06:58 437.325/437.525
AISAT 29 May 23:01:56 23:05:53 33° 72° (ENE) 23:09:57 437.250
ANTELSAT 29 May 23:07:50 23:10:45 18° 93° (E) 23:13:47 437.575/2403.000
50 SAT 29 May 23:11:25 23:15:13 43° 75° (ENE) 23:19:01 437.505
CINEMA 3 29 May 23:13:37 23:16:37 15° 270° (W) 23:19:24 145.822/145.860
UKube-1 29 May 23:25:14 23:29:32 66° 259° (W) 23:33:52 .
QB50P1 29 May 23:25:30 23:26:59 12° 90° (E) 23:28:44 145.935-145.965
VERMONT LUNAR 29 May 23:26:07 23:26:42 10° 143° (SE) 23:27:24 437.305
POLYITAN 1 29 May 23:28:49 23:30:50 13° 91° (E) 23:33:04 437.675
ZACube-1 29 May 23:30:37 23:34:31 26° 265° (W) 23:38:20 437.345
TIGRISAT 29 May 23:38:16 23:42:21 40° 98° (E) 23:46:22 435.000
Oscar 11 29 May 23:38:32 23:40:09 11° 270° (W) 23:41:30 145.826/435.025
DX 1 29 May 23:38:55 23:43:03 42° 261° (W) 23:47:12 434.975-435.025
ISS 29 May 23:43:43 23:46:25 23° 327° (NNW) 23:49:07 145.825
CUBEBUG 2 29 May 23:44:48 23:47:06 13° 270° (W) 23:49:07 437.445
NANOSAT C BR1 29 May 23:53:54 23:57:28 26° 96° (E) 00:01:06 145.865
CUBEBUG 1 29 May 23:54:09 23:58:26 63° 75° (ENE) 00:02:48 437.445
DANDE 29 May 23:58:06 00:04:34 33° 69° (ENE) 00:09:50 436.750
UNISAT 6 29 May 23:59:56 00:04:17 79° 100° (E) 00:08:34 437.425
QB50P2 30 May 00:04:03 00:07:59 36° 98° (E) 00:11:56 145.880/145.840
VELOX 1 30 May 00:05:15 00:09:31 45° 261° (W) 00:13:47 145.980
CUSAT 1 30 May 00:08:03 00:14:30 49° 74° (ENE) 00:19:26 437.405
DUCHIFAT 1 30 May 00:14:39 00:18:46 46° 99° (E) 00:22:50 145.980
POPSAT HIP 1 30 May 00:15:21 00:19:31 49° 100° (E) 00:23:37 437.405
GONETS M04 30 May 00:17:22 00:25:34 43° 75° (ENE) 00:33:46
ESTCUBE 1 30 May 00:20:30 00:24:53 54° 260° (W) 00:29:18 437.505/2401.250
SPROUT 30 May 00:21:10 00:24:59 32° 72° (ENE) 00:28:52 437.525
BUGSAT 1 30 May 00:23:24 00:27:24 39° 98° (E) 00:31:23 437.445
PCSat 30 May 00:25:07 00:30:17 48° 112° (ESE) 00:35:30 145.827
TISAT 1 30 May 00:32:02 00:35:44 30° 72° (ENE) 00:39:31 437.305
AISAT 30 May 00:39:23 00:42:35 19° 267° (W) 00:45:39 437.250
ANTELSAT 30 May 00:43:47 00:47:40 31° 288° (WNW) 00:51:24 437.575/2403.000
50 SAT 30 May 00:48:50 00:50:12 11° 269° (W) 00:51:18 437.505
QB50P1 30 May 00:59:04 01:03:12 47° 286° (WNW) 01:07:15 145.935-145.965
VERMONT LUNAR 30 May 01:00:17 01:03:30 64° 155° (SSE) 01:06:43 437.305
POLYITAN 1 30 May 01:02:57 01:07:00 41° 286° (WNW) 01:10:59 437.675
TIGRISAT 30 May 01:16:15 01:18:47 15° 292° (WNW) 01:21:07 435.000
ITUPSAT 1 30 May 01:20:00 01:22:58 17° 68° (ENE) 01:26:08 437.325
Cosmos 2499 30 May 01:23:29 01:27:26 16° 67° (ENE) 01:31:52 435.465 / 435.565
BEESAT 30 May 01:25:10 01:28:30 20° 68° (ENE) 01:32:00 436.000
O/OREOS (USA 219) 30 May 01:25:37 01:29:47 38° 65° (ENE) 01:33:59 437.305
NANOSAT C BR1 30 May 01:29:52 01:33:12 22° 290° (WNW) 01:36:23 145.865
SWISSCUBE 30 May 01:33:35 01:37:29 27° 70° (ENE) 01:41:29 437.505
QB50P2 30 May 01:40:53 01:43:37 16° 291° (WNW) 01:46:10 145.880/145.840
DANDE 30 May 01:41:24 01:47:47 34° 273° (W) 01:52:46 436.750
CUSAT 1 30 May 01:52:05 01:56:24 19° 278° (W) 01:59:50 437.405
DUCHIFAT 1 30 May 01:52:08 01:54:12 13° 293° (WNW) 01:56:03 145.980
POPSAT HIP 1 30 May 01:53:04 01:54:59 12° 293° (WNW) 01:56:42 437.405
SPROUT 30 May 01:58:05 02:01:09 18° 267° (W) 02:04:06 437.525
BEESAT 3 30 May 01:58:11 02:00:23 14° 47° (NE) 02:02:42 437.485
BUGSAT 1 30 May 02:00:00 02:02:33 15° 292° (WNW) 02:04:56 437.445
PHONESAT 2.4 30 May 02:07:52 02:11:19 57° 154° (SSE) 02:14:45 2401.200-2431.200
TISAT 1 30 May 02:08:31 02:11:35 19° 267° (W) 02:14:32 437.305
PCSat 30 May 02:09:48 02:14:00 22° 309° (NW) 02:18:05 145.827
GONETS M04 30 May 02:14:28 02:22:17 36° 273° (W) 02:29:52
KKS-1 30 May 02:15:50 02:16:28 10° 65° (ENE) 02:17:23 437.445
SO-50 30 May 02:34:32 02:38:55 45° 115° (ESE) 02:43:31 436.795
VERMONT LUNAR 30 May 02:37:47 02:40:49 37° 350° (N) 02:43:50 437.305
Oscar 19 30 May 02:43:27 02:48:33 61° 101° (E) 02:53:36 437.125/150
BEESAT 2 30 May 02:50:17 02:54:07 38° 56° (NE) 02:57:56 435.950
ITUPSAT 1 30 May 02:56:02 03:00:34 43° 261° (W) 03:05:06 437.325
BEESAT 30 May 03:01:44 03:06:08 37° 262° (W) 03:10:31 436.000
AIST 2 30 May 03:02:14 03:04:50 16° 48° (NE) 03:07:32 435.215
ITAMSAT 1 30 May 03:05:19 03:09:39 27° 95° (E) 03:14:05 435.822/435.867
O/OREOS (USA 219) 30 May 03:06:08 03:08:55 16° 259° (WSW) 03:11:31 437.305
STARS 30 May 03:08:39 03:12:16 25° 71° (ENE) 03:15:59 437.465
SWISSCUBE 30 May 03:11:15 03:15:17 27° 264° (W) 03:19:15 437.505
Cosmos 2499 30 May 03:14:22 03:21:25 72° 265° (W) 03:28:39 435.465 / 435.565
BEESAT 3 30 May 03:34:45 03:38:41 48° 244° (WSW) 03:42:32 437.485
PHONESAT 2.4 30 May 03:46:10 03:49:31 42° 349° (N) 03:52:51 2401.200-2431.200
KKS-1 30 May 03:48:09 03:52:36 67° 259° (W) 03:57:06 437.445
Gurwin Techsat 1B 30 May 04:01:54 04:07:14 86° 285° (WNW) 04:12:34 435.225
MOZHAYETS 4 30 May 04:07:18 04:09:25 14° 67° (ENE) 04:11:47
VERMONT LUNAR 30 May 04:15:25 04:18:24 34° 7° (N) 04:21:23 437.305
SO-50 30 May 04:16:10 04:19:45 20° 313° (NW) 04:23:17 436.795
JAS-2 30 May 04:16:35 04:20:25 21° 94° (E) 04:24:36 435.910
Oscar 19 30 May 04:24:37 04:27:26 14° 295° (WNW) 04:30:00 437.125/150
BEESAT 2 30 May 04:29:30 04:31:55 15° 250° (WSW) 04:34:09 435.950
HORYU 2 30 May 04:36:09 04:40:05 31° 97° (E) 04:44:03 437.375
ISS 30 May 04:37:39 04:39:26 14° 26° (NNE) 04:41:17 145.825
AIST 2 30 May 04:39:40 04:43:42 45° 245° (WSW) 04:47:37 435.215
ITAMSAT 1 30 May 04:44:34 04:49:11 32° 290° (WNW) 04:53:43 435.822/435.867
STARS 30 May 04:44:58 04:48:40 25° 265° (W) 04:52:17 437.465
AO-7 30 May 05:01:57 05:09:57 49° 101° (E) 05:17:59 29.400- 29.500
PHONESAT 2.4 30 May 05:24:47 05:28:02 36° 6° (N) 05:31:17 2401.200-2431.200
MOZHAYETS 4 30 May 05:41:49 05:46:16 51° 261° (W) 05:50:44
VERMONT LUNAR 30 May 05:52:34 05:55:46 82° 204° (SSW) 05:58:57 437.305
CUBESAT XI-V 30 May 05:55:08 05:57:40 15° 68° (ENE) 06:00:26 437.345
JAS-2 30 May 06:00:56 06:05:44 38° 288° (WNW) 06:10:42 435.910
Cosmos 2491 30 May 06:03:13 06:10:35 30° 71° (ENE) 06:18:08 435.465 / 435.565
ISS 30 May 06:12:57 06:16:13 75° 224° (SW) 06:19:27 145.825
HORYU 2 30 May 06:13:17 06:16:33 20° 291° (WNW) 06:19:41 437.375
YUBILEINY 30 May 06:50:16 06:57:08 28° 86° (E) 07:04:17 435.215
RS-15 30 May 06:52:38 06:53:57 11° 100° (E) 06:56:34 29.354- 29.394
AO-7 30 May 06:55:09 07:02:32 35° 297° (WNW) 07:09:46 29.400- 29.500
STRAND 1 30 May 06:57:47 07:02:11 31° 70° (ENE) 07:06:41 437.568
PHONESAT 2.4 30 May 07:02:54 07:06:23 90° 248° (WSW) 07:09:50 2401.200-2431.200
CUTE-I 30 May 07:22:16 07:27:26 47° 99° (E) 07:32:36 437.470
PRISM 30 May 07:22:48 07:26:49 62° 75° (ENE) 07:30:52 437.425
CUBESAT XI-V 30 May 07:30:21 07:34:46 46° 262° (W) 07:39:13 437.345
M-CUBED/EXP-1 PRIME 30 May 07:30:54 07:34:51 42° 70° (ENE) 07:38:31 437.505
VERMONT LUNAR 30 May 07:30:56 07:32:37 13° 216° (SW) 07:34:13 437.305
AUBIESAT-1 30 May 07:35:43 07:39:35 41° 70° (ENE) 07:43:12 437.475
Cubesat XI-IV 30 May 07:43:49 07:49:12 78° 101° (ESE) 07:54:35 437.490
Cosmos 2491 30 May 07:59:22 08:07:53 53° 269° (W) 08:16:14 435.465 / 435.565
AIST 1 30 May 08:03:31 08:07:51 59° 81° (E) 08:12:13
BRITE-PL 30 May 08:17:34 08:20:41 16° 88° (E) 08:23:58 437.365/2234.400
STRAND 1 30 May 08:37:09 08:41:25 26° 265° (W) 08:45:35 437.568
PHONESAT 2.4 30 May 08:41:52 08:44:11 17° 216° (SW) 08:46:26 2401.200-2431.200
YUBILEINY 30 May 08:44:58 08:53:32 55° 282° (WNW) 09:02:02 435.215
RS-15 30 May 08:53:59 09:04:40 69° 115° (ESE) 09:15:40 29.354- 29.394
CUTE-I 30 May 09:03:19 09:07:12 20° 293° (WNW) 09:10:54 437.470
M-CUBED/EXP-1 PRIME 30 May 09:07:50 09:09:49 13° 262° (W) 09:11:32 437.505
AUBIESAT-1 30 May 09:12:31 09:14:29 13° 262° (W) 09:16:12 437.475
JUGNU 30 May 09:15:58 09:18:21 13° 168° (SSE) 09:20:49 437.505
PCSat 30 May 09:16:34 09:20:41 22° 51° (NE) 09:24:54 145.827
CANX-2 30 May 09:25:46 09:29:20 27° 95° (E) 09:32:57 2200.000
Cubesat XI-IV 30 May 09:26:28 09:28:44 12° 296° (WNW) 09:30:41 437.490
HO-68 30 May 09:26:56 09:33:22 36° 97° (E) 09:39:53 435.675
CUTE 1.7 + AOD 2 30 May 09:28:47 09:32:18 26° 95° (E) 09:35:54 437.475
CINEMA 3 30 May 09:34:21 09:36:48 15° 90° (E) 09:39:24 145.822/145.860
Cosmos 2504 30 May 09:36:13 09:43:18 34° 89° (E) 09:50:09 435.465 / 435.565
GOMX 1 30 May 09:38:17 09:43:32 64° 100° (E) 09:48:24 467.674
SEEDS 30 May 09:45:26 09:49:13 33° 97° (E) 09:53:02 437.485
Oscar 11 30 May 09:52:08 09:53:22 11° 90° (E) 09:54:52 145.826/435.025
COMPASS 1 30 May 09:52:49 09:56:33 32° 97° (E) 10:00:18 437.405
BRITE-PL 30 May 09:54:13 09:59:42 57° 286° (WNW) 10:04:49 437.365/2234.400
CUBEBUG 2 30 May 10:01:44 10:03:46 13° 90° (E) 10:06:01 437.445
AAUSAT CUBESAT 2 30 May 10:01:45 10:05:32 35° 97° (E) 10:09:21 437.432
ANTELSAT 30 May 10:04:52 10:07:03 14° 67° (ENE) 10:09:27 437.575/2403.000
DELFI C3 30 May 10:06:48 10:07:50 11° 90° (E) 10:09:07 145.870
DOVE 4 30 May 10:21:29 10:26:29 71° 284° (WNW) 10:31:08 437.250
TIGRISAT 30 May 10:34:03 10:37:57 27° 71° (ENE) 10:41:53 435.000
UWE-3 30 May 10:39:54 10:43:40 30° 96° (E) 10:47:25 435.000/436.395/437.385
FUNcube-1 30 May 10:40:17 10:43:36 23° 94° (E) 10:46:58 145.935
SRMSAT 30 May 10:40:53 10:42:27 11° 167° (SSE) 10:44:08 437.500
NANOSAT C BR1 30 May 10:44:45 10:47:01 15° 68° (ENE) 10:49:29 145.865
HUMSAT D 30 May 10:48:03 10:49:15 11° 90° (E) 10:50:43 437.325/437.525
QB50P2 30 May 10:54:43 10:57:47 20° 70° (ENE) 11:00:58 145.880/145.840
UNISAT 6 30 May 10:55:29 10:59:59 49° 74° (ENE) 11:04:27 437.425
PCSat 30 May 10:59:11 11:04:23 48° 249° (WSW) 11:09:32 145.827
CANX-2 30 May 11:01:57 11:05:08 21° 289° (WNW) 11:08:12 2200.000
JUGNU 30 May 11:02:54 11:06:39 17° 178° (S) 11:10:24 437.505
DUCHIFAT 1 30 May 11:04:30 11:07:54 24° 71° (ENE) 11:11:23 145.980
CUTE 1.7 + AOD 2 30 May 11:04:53 11:08:07 21° 289° (WNW) 11:11:14 437.475
POPSAT HIP 1 30 May 11:05:33 11:09:03 25° 71° (ENE) 11:12:38 437.405
RS-15 30 May 11:08:19 11:18:01 34° 318° (NW) 11:27:45 29.354- 29.394
SO-50 30 May 11:09:20 11:13:03 21° 48° (NE) 11:16:52 436.795
CINEMA 3 30 May 11:09:56 11:14:20 42° 287° (WNW) 11:18:28 145.822/145.860
BUGSAT 1 30 May 11:11:17 11:14:12 19° 70° (ENE) 11:17:16 437.445
HO-68 30 May 11:14:35 11:21:07 38° 293° (WNW) 11:27:29 435.675
UKube-1 30 May 11:16:16 11:19:50 25° 96° (E) 11:23:28 .
GOMX 1 30 May 11:18:18 11:21:02 14° 295° (WNW) 11:23:27 467.674
ZACube-1 30 May 11:21:44 11:26:01 77° 102° (ESE) 11:30:11 437.345
SEEDS 30 May 11:22:03 11:24:48 17° 290° (WNW) 11:27:22 437.485
Oscar 11 30 May 11:25:44 11:29:54 50° 285° (WNW) 11:34:03 145.826/435.025
Cosmos 2504 30 May 11:28:42 11:36:32 43° 283° (WNW) 11:43:48 435.465 / 435.565
COMPASS 1 30 May 11:29:14 11:32:00 17° 290° (WNW) 11:34:37 437.405
DX 1 30 May 11:30:07 11:34:15 40° 98° (E) 11:38:23 434.975-435.025
CUSAT 1 30 May 11:30:59 11:32:57 11° 80° (E) 11:35:39 437.405
CUBEBUG 2 30 May 11:36:38 11:40:48 42° 286° (WNW) 11:44:46 437.445
AAUSAT CUBESAT 2 30 May 11:38:20 11:40:53 16° 291° (WNW) 11:43:17 437.432
ANTELSAT 30 May 11:38:51 11:43:27 54° 260° (W) 11:48:00 437.575/2403.000
DELFI C3 30 May 11:39:24 11:43:14 44° 285° (WNW) 11:47:04 145.870
CUBEBUG 1 30 May 11:47:27 11:49:56 15° 92° (E) 11:52:37 437.445
QB50P1 30 May 11:48:16 11:52:33 84° 78° (ENE) 11:56:52 145.935-145.965
POLYITAN 1 30 May 11:52:21 11:56:40 85° 258° (WSW) 12:01:01 437.675
VELOX 1 30 May 11:58:41 12:02:55 41° 99° (E) 12:07:09 145.980
TIGRISAT 30 May 12:10:44 12:14:40 25° 265° (W) 12:18:27 435.000
ESTCUBE 1 30 May 12:16:14 12:20:27 38° 98° (E) 12:24:43 437.505/2401.250
FUNcube-1 30 May 12:16:26 12:19:54 24° 289° (WNW) 12:23:15 145.935
UWE-3 30 May 12:16:55 12:20:01 19° 291° (WNW) 12:22:57 435.000/436.395/437.385
NANOSAT C BR1 30 May 12:18:29 12:22:32 41° 262° (W) 12:26:36 145.865
HUMSAT D 30 May 12:21:22 12:25:20 45° 286° (WNW) 12:29:14 437.325/437.525
50 SAT 30 May 12:25:08 12:29:00 75° 284° (WNW) 12:32:49 437.505
SRMSAT 30 May 12:27:17 12:30:54 17° 176° (S) 12:34:32 437.500
QB50P2 30 May 12:29:42 12:33:30 30° 264° (W) 12:37:16 145.880/145.840
AISAT 30 May 12:31:31 12:36:02 77° 283° (WNW) 12:40:28 437.250
UNISAT 6 30 May 12:34:29 12:37:03 14° 269° (W) 12:39:22 437.425
DUCHIFAT 1 30 May 12:40:07 12:43:38 24° 265° (W) 12:47:05 145.980
POPSAT HIP 1 30 May 12:41:25 12:44:53 23° 265° (W) 12:48:16 437.405
BUGSAT 1 30 May 12:45:49 12:49:30 29° 264° (W) 12:53:10 437.445
SO-50 30 May 12:49:08 12:53:52 45° 245° (WSW) 12:58:29 436.795
JUGNU 30 May 12:51:40 12:54:57 15° 188° (S) 12:58:10 437.505
UKube-1 30 May 12:52:21 12:55:53 24° 290° (WNW) 12:59:19 .
DANDE 30 May 13:01:41 13:08:36 51° 91° (E) 13:16:43 436.750
CUSAT 1 30 May 13:06:55 13:14:18 71° 95° (E) 13:22:37 437.405
DX 1 30 May 13:07:27 13:10:13 16° 292° (WNW) 13:12:47 434.975-435.025
GONETS M04 30 May 13:14:00 13:22:29 55° 91° (E) 13:31:04
CUBEBUG 1 30 May 13:22:19 13:26:31 41° 287° (WNW) 13:30:40 437.445
RS-15 30 May 13:30:38 13:35:33 13° 351° (N) 13:40:21 29.354- 29.394
VELOX 1 30 May 13:36:20 13:39:10 16° 292° (WNW) 13:41:48 145.980
Gurwin Techsat 1B 30 May 13:43:48 13:45:48 13° 64° (ENE) 13:48:06 435.225
